Regional Weather Roundup
Issued by NWS Newport/Morehead, NC

Current Version | Previous Version | Text Only | Print | Product List | Glossary On
Versions: 1 2 3 4 5 6 7 8 9 10 11 12 13 14 15 16 17 18 19 20 21 22 23 24 25 26 27 28 29 30 31 32 33 34 35 36 37 38 39 40 41 42 43 44 45 46 47 48 49 50
000
ASUS42 KMHX 301010
RWRMHX
WEATHER ROUNDUP FOR EASTERN NORTH CAROLINA
NATIONAL WEATHER SERVICE NEWPORT/MOREHEAD CITY NC
600 AM EDT SAT AUG 30 2014

NOTE: "FAIR" INDICATES FEW OR NO CLOUDS BELOW 12,000 FEET
WITH NO SIGNIFICANT WEATHER AND/OR OBSTRUCTIONS TO VISIBILITY

NCZ015>017-031-032-045>047-102-103-301100-
NORTH COAST

CITY           SKY/WX    TMP DP  RH WIND       PRES   REMARKS
EDENTON        CLOUDY    72  69  90 E3        30.19S
ELIZABETH CITY CLOUDY    74  67  78 E6        30.20S
KITTY HAWK     CLOUDY    75  69  81 E6        30.19R
MANTEO         MOCLDY    74  69  83 E8        30.20R

$$

NCZ045>047-081-094-103-104-301100-
CENTRAL COAST

CITY           SKY/WX    TMP DP  RH WIND       PRES   REMARKS
FRISCO         NOT AVBL
SWANQUARTER      N/A     73 N/A N/A NE5       30.15S

$$

NCZ095-097-098-100-101-301100-
SOUTHERN COAST

CITY           SKY/WX    TMP DP  RH WIND       PRES   REMARKS
BEAUFORT       PTCLDY    75  73  93 CALM      30.18R
CEDAR ISLAND     N/A     79 N/A N/A NE1       30.21S
JACKSONVILLE   PTCLDY    73  71  93 NE5       30.17R
NEWPORT        NOT AVBL
PINEY ISLAND   MOSUNNY   77  76  96 CALM      30.18R
WILMINGTON     PTCLDY    72  71  97 NE3       30.16R


$$

NCZ011>013-027>030-043-044-078>080-089-090>093-098-301100-
COASTAL PLAIN

CITY           SKY/WX    TMP DP  RH WIND       PRES   REMARKS
AHOSKIE        CLEAR     69  65  88 CALM      30.21R
CLINTON        FOG       72  72 100 E3        30.18R VSB 1
ELIZABETHTOWN  CLEAR     71  71 100 CALM      30.17R
GOLDSBORO      CLEAR     70  69  98 E5        30.17S
GREENVILLE     MOCLDY    72  68  88 CALM      30.20S
HAVELOCK       PTCLDY    73  71  93 CALM      30.19R
KENANSVILLE    NOT AVBL
KINSTON        CLEAR     69  68  96 CALM      30.20R
NEW BERN       MOCLDY    73  70  90 CALM      30.19S
RICHLANDS      CLEAR     72  68  88 N3        30.18R
ROANOKE RAPIDS NOT AVBL
ROCKY MOUNT    MOCLDY    70  67  90 CALM      30.19S
WASHINGTON     PTCLDY    70  67  92 CALM      30.19S
WHITEVILLE     CLEAR     71  69  95 CALM      30.16R

$$

AMZ130-135-150-152-154-156-158-170-250-252-270-ANZ085-086-088-633-658-670-301100-
MARINE OBSERVATIONS

STATION/POSITION TIME  TEMP    WIND        PRES    WAVE   SWELL
                       AIR SEA DIR/SP/G            HT/PER HT/PER
                 (UTC) (F)     (DEG/KT/KT) (MB)    (FT/S) (FT/S)
CHESAPEAKE LIGHT 0900   75     110/ 10/ 11 1023.3
BUOY 44014       1000   76 76   80/ 10/ 10 1022.5    3/ 7   3/ 7
DUCK             1000   76 78  100/ 13/ 15 1021.8
2E DUCK          1000                        N/A     3/ 7
OREGON INLET     1000   75 78   70/  8/ 11 1022.1
BUOY 44095       1000      76                N/A     3/ 8   2/13
20E OREGON INLET NOT AVBL
HATTERAS CG      1000   78 82   90/  3/  5 1022.3
DIAMOND BUOY     1000   77     170/  4/  8 1021.8    4/ 9   3/ 9
CAPE LOOKOUT     0900   80      50/  3/  4 1021.3
BEAUFORT LAB     1000   75 82   20/  3/  4 1021.2
30 SE NEW RIVER  1000   82 82  220/  6/  8 1021.9    3/ 8   3/ 8
5 SE WRIGHTSVILL 1000   78 81  160/  6/  8   N/A
BUOY 41002       0936   77 82  120/ 12/ 21 1021.9    3/ 8   3/ 8
BUOY 41004       1000   82 83   30/  2/  4 1020.3    3/ 8   3/ 8

$$



USA.gov is the U.S. government's official web portal to all federal, state and local government web resources and services.